Wind_Speed
39 38 38 38 38 38 38 38 38 38 38 37 36 36 35 35 35 34 33 32 32 31 31 30 29 28 28 28 27 26 26 25 25 24 23 23 21 21 20 20 19 18 18
40 40 39 39 40 39 39 39 40 40 40 39 39 38 37 37 36 36 35 35 34 33 33 32 31 30 30 29 29 29 28 27 26 25 25 24 23 22 22 21 21 20 19
41 40 40 40 41 41 41 41 41 42 41 41 41 40 39 38 38 38 37 36 36 35 34 34 33 33 32 31 30 30 29 29 28 27 26 25 25 24 23 22 22 22 21
42 42 41 41 42 42 42 42 43 43 43 43 43 42 42 41 40 39 39 38 38 37 36 36 35 35 34 32 31 31 31 30 30 29 28 27 27 26 25 24 24 24 23
44 43 43 43 43 42 43 43 44 44 44 44 44 44 44 43 42 41 41 40 40 39 38 38 37 37 35 35 34 32 32 31 30 30 30 30 29 28 27 26 26 26 25
45 45 45 45 45 44 44 44 45 45 46 46 46 46 46 45 45 44 43 42 42 41 40 40 40 39 38 36 36 35 34 33 32 32 32 32 31 30 29 28 27 27 27
46 46 47 46 46 45 45 45 45 45 46 47 47 47 47 47 47 46 45 44 44 43 42 42 41 40 40 39 38 38 36 35 35 34 33 33 32 32 31 30 29 29 29
46 47 46 47 46 46 46 47 46 46 47 47 48 48 49 49 48 48 47 46 46 45 44 44 43 42 41 41 40 40 39 38 37 36 35 34 34 33 33 32 31 31 31
47 47 47 48 48 48 48 48 48 47 47 48 48 48 49 49 49 48 48 47 47 47 47 46 45 44 43 43 42 41 41 40 39 38 37 36 36 35 34 34 33 33 33
48 48 48 48 49 49 48 48 48 48 48 48 49 49 49 48 49 49 48 49 48 48 48 48 48 47 45 44 44 44 42 41 41 40 40 39 39 38 36 36 35 35 35
49 49 49 49 50 50 50 50 48 48 49 49 50 50 49 50 50 50 50 50 50 50 49 49 49 50 48 47 46 46 44 43 42 42 41 40 40 40 39 38 38 38 37
50 50 50 50 49 50 51 50 49 49 49 50 51 51 51 52 52 52 52 52 52 51 51 51 50 50 50 50 49 48 47 45 44 44 43 43 42 42 42 41 41 41 40
51 51 51 52 51 51 51 52 51 51 51 51 52 52 52 53 54 54 54 53 53 52 53 53 52 51 51 51 51 50 49 48 47 46 45 44 44 45 45 44 43 42 42
50 51 51 52 53 52 52 53 52 52 52 52 53 53 53 53 54 55 55 54 54 54 54 54 54 53 52 52 52 52 52 50 49 48 48 46 46 46 46 45 44 44 44
51 51 51 52 53 53 53 54 54 53 53 54 54 54 54 54 55 56 56 56 55 55 55 55 55 55 54 54 53 54 53 52 52 51 50 49 48 48 47 47 47 46 45
53 53 52 52 53 53 54 55 54 54 54 54 55 56 56 56 56 56 56 57 57 56 56 56 56 57 56 55 54 54 53 53 52 52 51 50 50 49 49 49 49 49 48
54 54 53 53 53 53 54 55 55 55 55 55 56 56 56 56 56 57 57 57 57 56 56 56 56 56 55 55 54 53 52 52 52 52 51 51 50 50 50 50 50 50 50
54 54 54 54 55 55 55 55 55 56 55 55 56 56 56 55 55 56 57 57 56 55 55 55 55 55 55 55 55 53 52 52 52 53 52 51 51 51 51 51 50 50 50
52 53 54 54 55 55 55 56 56 55 56 55 56 55 55 55 54 55 56 56 56 55 55 55 55 54 54 55 55 54 53 53 53 53 53 53 52 51 51 51 51 51 51
51 52 53 54 55 55 55 55 56 56 56 55 55 55 55 55 55 55 55 55 55 55 55 55 55 55 55 55 55 54 54 54 54 53 53 53 52 51 51 51 51 50 50
51 52 53 54 55 55 56 55 55 56 56 55 55 54 54 54 54 55 55 55 55 55 55 55 55 54 54 54 55 55 55 54 54 54 53 53 53 52 51 51 51 50 50
50 50 51 52 53 54 55 55 55 55 55 56 55 55 55 55 55 55 55 55 55 55 55 55 55 54 55 55 55 55 55 55 55 54 54 53 54 53 52 52 51 52 52
48 48 49 50 51 52 53 53 54 55 55 55 56 56 56 56 56 56 55 55 55 55 55 55 54 55 56 57 56 56 57 56 56 55 54 54 54 53 53 52 53 53 53
46 46 47 47 47 48 49 50 52 53 53 53 54 55 55 55 56 56 56 56 55 55 55 55 55 55 56 56 56 57 57 57 56 56 56 55 54 54 54 54 53 53 53
44 44 45 45 45 45 46 48 49 50 51 51 51 52 53 53 54 56 57 56 55 54 54 55 55 56 57 57 57 58 59 59 58 57 57 56 56 56 55 55 54 54 54
42 42 42 43 44 45 45 46 47 48 49 49 50 51 52 52 52 53 54 54 54 54 55 56 57 57 57 58 59 59 59 59 58 57 57 57 56 56 56 55 55 55 55
Wind_Direction
254 254 255 254 253 253 252 251 250 249 249 248 249 250 250 251 250 249 247 246 244 245 245 245 247 248 249 249 249 250 252 252 252 254 255 256 258 259 259 259 261 264 266
254 254 256 256 255 253 252 252 251 250 249 249 249 250 251 250 250 249 248 247 246 246 245 245 245 247 249 249 249 251 252 253 254 254 255 256 258 259 259 260 263 264 265
254 255 256 257 257 255 254 252 251 250 249 249 249 250 250 250 249 248 247 247 247 247 246 246 245 246 247 248 248 250 252 252 254 254 253 255 257 258 257 258 261 263 265
254 255 256 257 257 256 255 254 252 251 250 249 248 249 249 249 248 247 247 246 246 247 247 246 245 246 246 247 247 249 252 252 253 254 254 256 257 258 258 258 261 263 264
254 255 255 256 257 256 255 255 254 252 251 250 249 248 248 248 247 246 246 247 246 246 247 247 245 245 246 246 247 248 250 252 252 253 254 256 257 258 258 260 261 262 263
254 254 255 256 256 256 256 256 254 253 252 251 250 249 248 247 246 245 246 246 246 246 247 247 246 246 245 246 247 248 250 251 253 254 255 256 257 257 258 260 260 260 262
254 254 254 255 256 256 256 256 255 254 253 252 251 249 248 247 246 246 245 245 246 246 246 246 246 246 246 247 247 248 250 252 254 254 255 255 256 257 258 260 260 261 262
253 253 254 254 255 255 256 256 255 255 254 253 251 250 249 247 246 246 246 245 246 246 247 247 246 246 246 246 247 249 251 252 254 255 256 257 257 258 259 260 260 261 262
253 253 253 254 254 255 255 256 255 255 254 253 251 251 249 247 246 245 246 246 246 247 247 247 247 247 246 247 247 249 251 252 253 255 256 257 257 257 258 260 259 260 262
253 253 253 253 254 255 255 255 256 255 254 253 251 251 249 247 246 245 245 246 247 247 247 247 247 247 246 247 248 249 251 252 252 254 255 257 258 258 257 259 260 260 262
253 253 253 253 254 255 254 254 255 254 254 253 252 250 250 248 247 246 246 247 247 247 246 247 247 247 246 246 248 249 250 252 252 253 255 256 258 258 258 258 260 261 262
253 253 253 254 254 254 253 253 253 253 253 253 252 251 251 250 248 248 248 247 247 247 247 247 248 247 247 246 247 249 249 251 251 252 254 256 257 259 259 259 260 262 263
254 253 254 255 254 254 253 253 252 253 253 254 253 252 251 251 250 249 249 248 247 246 246 247 248 248 247 247 247 249 250 251 252 253 253 254 257 259 259 260 260 262 263
253 254 255 254 254 253 253 253 253 254 254 254 253 252 252 251 251 250 249 249 247 246 245 246 247 247 247 247 248 248 250 252 253 253 253 254 256 258 259 259 260 261 262
256 255 255 255 254 253 253 253 253 254 254 254 253 253 252 252 251 251 250 250 249 247 245 245 246 246 247 247 247 248 249 251 253 253 253 254 255 257 258 259 260 261 261
257 257 257 256 255 254 254 253 253 254 254 253 254 254 253 252 252 250 250 250 249 248 245 245 245 245 246 247 248 248 249 250 252 253 253 253 255 257 258 259 260 260 260
259 259 257 256 256 256 255 254 253 254 254 254 254 255 253 252 251 250 250 250 249 248 247 245 245 245 246 247 247 247 248 249 251 252 254 254 255 256 257 258 260 261 261
259 259 258 258 257 256 255 254 254 254 254 254 254 254 252 251 251 250 249 249 249 248 247 246 245 245 246 246 246 247 247 248 250 251 253 254 255 256 257 258 259 260 260
260 259 257 257 257 257 256 255 255 254 254 254 253 253 252 251 250 249 248 248 248 248 247 246 246 245 246 245 246 247 248 248 249 251 253 254 254 256 256 257 258 259 260
261 260 259 257 256 257 256 255 254 254 254 253 252 252 251 251 250 249 248 248 248 248 247 245 245 246 245 245 246 248 248 249 249 250 252 253 254 255 256 257 258 259 260
263 262 261 260 258 257 256 255 254 254 253 253 252 251 250 249 249 249 248 247 247 247 246 245 245 245 245 245 246 248 249 250 249 250 251 253 254 255 256 257 258 260 260
265 264 263 261 259 258 257 255 254 253 252 252 252 251 250 250 249 249 248 247 247 247 246 246 245 244 244 245 247 249 250 250 250 250 252 253 254 255 256 257 258 260 260
264 263 263 261 260 258 256 254 253 252 252 252 251 251 250 250 249 249 248 247 247 246 246 245 245 245 246 246 248 249 249 250 250 251 252 252 253 254 256 258 258 259 259
263 262 261 260 260 258 256 254 253 252 252 251 251 251 249 249 249 248 248 247 247 246 246 246 246 247 246 247 248 248 249 250 250 251 252 252 253 254 256 257 258 260 259
264 263 261 259 258 257 255 253 252 252 251 250 250 250 249 249 249 249 248 247 247 247 246 246 246 247 247 248 249 250 250 251 250 251 252 253 253 254 255 257 259 260 260
265 264 262 260 258 257 256 254 253 252 251 250 249 249 249 249 249 249 247 246 247 247 247 247 247 248 248 249 250 251 251 251 251 252 253 253 254 254 255 256 259 260 261
Height
5750 5751 5753 5755 5757 5760 5763 5765 5768 5772 5775 5778 5781 5784 5786 5789 5792 5794 5797 5800 5802 5805 5807 5810 5812 5814 5815 5817 5819 5821 5822 5824 5825 5827 5828 5829 5830 5831 5832 5833 5833 5834 5835
5740 5743 5744 5746 5748 5751 5753 5756 5759 5762 5766 5769 5772 5775 5778 5781 5783 5786 5789 5792 5795 5798 5800 5803 5805 5807 5809 5811 5813 5815 5817 5818 5820 5821 5822 5824 5825 5826 5827 5828 5829 5830 5830
5731 5733 5735 5737 5739 5741 5744 5746 5749 5753 5756 5759 5763 5766 5769 5772 5775 5778 5781 5784 5787 5790 5793 5795 5798 5800 5803 5805 5806 5808 5810 5812 5814 5815 5817 5818 5820 5821 5822 5823 5824 5825 5825
5721 5723 5725 5727 5729 5731 5734 5736 5739 5742 5746 5749 5753 5756 5759 5762 5765 5768 5772 5775 5778 5781 5785 5787 5790 5793 5795 5798 5800 5802 5804 5805 5807 5809 5811 5812 5814 5815 5816 5817 5818 5819 5820
5710 5713 5715 5717 5719 5721 5723 5726 5729 5732 5735 5738 5742 5745 5748 5752 5755 5758 5762 5766 5769 5772 5776 5779 5782 5785 5787 5790 5792 5794 5796 5798 5800 5802 5804 5806 5807 5809 5810 5811 5812 5813 5814
5699 5702 5704 5706 5708 5711 5713 5715 5718 5720 5724 5727 5730 5734 5737 5740 5744 5748 5752 5755 5759 5763 5767 5770 5773 5776 5779 5781 5784 5787 5788 5791 5793 5795 5797 5799 5800 5802 5803 5805 5806 5807 5808
5688 5690 5692 5694 5697 5699 5702 5704 5706 5709 5712 5715 5718 5722 5725 5729 5733 5737 5741 5745 5749 5753 5756 5760 5764 5767 5770 5773 5776 5778 5781 5783 5785 5787 5789 5791 5793 5794 5796 5798 5799 5800 5801
5676 5678 5681 5683 5685 5688 5690 5693 5695 5697 5700 5703 5706 5710 5714 5718 5721 5725 5729 5734 5738 5742 5746 5749 5753 5757 5760 5763 5767 5769 5772 5774 5777 5779 5781 5783 5785 5787 5788 5790 5791 5792 5794
5664 5667 5669 5672 5674 5676 5678 5681 5683 5686 5688 5691 5694 5697 5701 5706 5710 5714 5718 5722 5726 5730 5734 5738 5743 5746 5750 5753 5757 5760 5763 5765 5768 5770 5772 5774 5776 5778 5780 5782 5783 5784 5785
5652 5655 5657 5660 5662 5664 5666 5668 5671 5673 5676 5679 5682 5685 5690 5694 5698 5703 5707 5711 5714 5718 5722 5727 5731 5735 5739 5743 5746 5750 5753 5756 5758 5761 5763 5765 5767 5770 5771 5773 5774 5775 5777
5640 5642 5645 5647 5649 5651 5654 5656 5659 5661 5664 5667 5670 5673 5677 5681 5685 5690 5695 5699 5702 5706 5710 5714 5719 5723 5727 5731 5735 5739 5742 5745 5748 5751 5753 5755 5758 5760 5762 5764 5766 5767 5768
5627 5630 5632 5634 5636 5639 5641 5643 5646 5649 5651 5654 5658 5661 5664 5668 5672 5676 5681 5686 5690 5694 5698 5702 5706 5711 5715 5719 5723 5727 5731 5734 5736 5739 5742 5745 5747 5750 5752 5754 5756 5757 5759
5615 5616 5619 5621 5623 5625 5628 5630 5633 5636 5639 5641 5644 5647 5651 5655 5658 5662 5667 5671 5676 5681 5685 5689 5693 5698 5702 5707 5711 5715 5719 5722 5725 5728 5731 5734 5736 5739 5741 5743 5745 5747 5748
5601 5603 5605 5607 5609 5611 5614 5617 5619 5622 5625 5628 5631 5634 5637 5640 5644 5648 5653 5657 5662 5667 5672 5676 5680 5684 5688 5693 5698 5702 5706 5710 5713 5716 5719 5722 5725 5727 5730 5732 5734 5735 5737
5587 5589 5591 5593 5595 5597 5600 5603 5606 5608 5611 5614 5617 5620 5623 5626 5629 5633 5638 5642 5648 5653 5658 5663 5667 5670 5674 5679 5683 5688 5692 5697 5700 5703 5706 5710 5712 5715 5717 5720 5722 5724 5725
5573 5575 5577 5579 5581 5583 5586 5588 5591 5594 5596 5599 5602 5605 5608 5611 5614 5618 5622 5627 5632 5637 5643 5648 5652 5656 5660 5665 5669 5674 5679 5683 5687 5690 5693 5697 5699 5702 5705 5707 5709 5711 5713
5559 5560 5562 5564 5566 5569 5571 5573 5576 5579 5582 5584 5587 5590 5592 5595 5599 5603 5607 5612 5617 5622 5628 5634 5638 5642 5647 5651 5656 5661 5665 5670 5674 5677 5680 5683 5686 5689 5691 5693 5695 5697 5699
5544 5546 5547 5549 5551 5554 5556 5558 5561 5564 5566 5569 5572 5574 5577 5580 5584 5588 5592 5597 5602 5607 5613 5618 5623 5628 5633 5638 5642 5647 5652 5656 5660 5663 5666 5669 5672 5675 5677 5679 5682 5684 5686
5529 5531 5532 5534 5536 5538 5541 5543 5546 5549 5551 5554 5556 5559 5562 5565 5570 5574 5578 5583 5588 5593 5598 5603 5609 5613 5619 5624 5629 5633 5637 5642 5646 5649 5652 5655 5658 5661 5663 5665 5668 5670 5672
5515 5516 5517 5519 5521 5523 5525 5528 5531 5534 5536 5539 5542 5545 5548 5551 5555 5559 5564 5569 5573 5578 5584 5589 5594 5599 5604 5609 5614 5619 5623 5627 5631 5634 5637 5641 5644 5646 5649 5652 5655 5657 5659
5500 5501 5502 5504 5505 5507 5510 5512 5515 5518 5521 5524 5527 5530 5534 5537 5541 5545 5550 5554 5559 5564 5569 5574 5580 5585 5590 5595 5600 5604 5609 5613 5616 5620 5623 5627 5630 5633 5635 5638 5640 5642 5645
5485 5486 5487 5489 5490 5492 5494 5497 5500 5503 5506 5510 5513 5516 5520 5523 5527 5531 5536 5540 5545 5550 5555 5560 5565 5571 5576 5581 5585 5589 5594 5598 5603 5607 5609 5613 5615 5618 5621 5624 5626 5628 5631
5471 5472 5473 5474 5475 5477 5479 5481 5484 5487 5491 5494 5498 5502 5506 5509 5513 5517 5521 5526 5531 5535 5541 5546 5551 5556 5561 5567 5571 5575 5579 5582 5587 5591 5594 5598 5601 5604 5607 5609 5612 5614 5616
5457 5458 5459 5460 5461 5463 5464 5467 5469 5473 5476 5480 5483 5487 5491 5495 5499 5503 5507 5511 5516 5522 5527 5532 5537 5542 5546 5550 5555 5559 5563 5567 5572 5576 5579 5583 5586 5589 5592 5595 5597 5599 5601
5443 5444 5445 5446 5447 5449 5450 5453 5455 5459 5462 5466 5470 5473 5477 5481 5485 5489 5493 5499 5504 5508 5512 5517 5521 5526 5530 5535 5540 5544 5548 5552 5556 5561 5564 5568 5571 5574 5577 5580 5581 5583 5585
5430 5430 5431 5433 5434 5436 5437 5439 5442 5445 5449 5453 5457 5461 5464 5468 5471 5474 5479 5484 5489 5493 5497 5502 5506 5510 5515 5520 5524 5528 5532 5536 5540 5545 5549 5552 5555 5558 5562 5565 5566 5568 5569